Lid_Strength_Index
5 5 5 5 5 5 6 6 6 5 5 5 5 5 5 5 6 9 11 10 13 16 15 13 12 14 15 15 18 16 17 16 16 18 17 19 18 18 20 18 18 18 19 19 17 18 19 10 12 15 13 12 11 11
5 5 5 5 5 5 5 6 6 5 5 5 5 5 5 5 6 9 12 9 10 14 14 11 11 10 11 12 14 15 16 16 15 17 18 18 19 21 19 23 17 19 17 19 17 17 13 12 12 11 11 12 11 11
4 4 4 5 5 4 5 5 5 5 5 5 5 5 5 5 5 8 11 11 12 15 15 14 14 12 10 10 10 14 14 13 14 13 16 17 18 17 21 19 20 16 14 16 16 15 13 12 11 11 10 10 9 9
4 3 4 4 4 4 5 5 5 5 5 5 5 5 5 5 5 7 11 11 12 14 18 16 11 13 11 10 10 10 12 11 11 12 15 18 18 15 18 17 17 14 15 16 16 13 13 11 10 9 8 7 8 8
3 4 4 4 4 3 3 4 4 5 5 5 5 5 5 5 5 8 10 10 10 13 18 15 13 12 11 11 12 10 11 12 14 15 17 17 13 13 15 16 16 13 13 15 16 11 11 10 8 6 7 7 7 8
3 4 4 4 4 3 3 3 4 5 5 5 5 5 5 4 6 11 13 10 8 9 14 20 14 14 12 11 11 12 11 12 12 13 15 13 11 13 15 16 13 11 10 8 9 8 8 7 7 7 7 7 6 8
4 4 4 4 3 3 4 4 4 4 5 4 4 4 4 4 9 12 13 10 6 9 14 19 18 14 14 13 12 12 12 12 12 12 13 12 11 9 12 15 9 9 8 7 7 8 9 8 8 6 5 6 6 8
5 5 4 4 4 4 4 4 4 4 4 4 4 4 4 5 7 10 9 6 9 12 14 23 21 17 14 14 14 12 13 12 12 12 9 9 9 8 13 10 9 8 8 8 7 7 7 7 6 6 6 7 9 9
5 4 4 4 4 4 4 4 4 4 4 4 4 5 8 10 12 9 5 6 8 11 17 15 23 20 13 13 12 12 12 16 11 12 10 10 10 12 9 8 8 7 8 7 7 7 7 7 7 8 8 8 9 10
4 4 4 4 4 4 4 4 4 4 3 5 8 11 16 12 6 6 10 11 11 11 11 14 15 17 13 13 15 16 12 16 20 12 9 10 12 7 7 7 7 7 7 7 9 8 8 7 8 8 8 8 9 9
5 5 4 4 4 4 4 4 4 3 5 8 13 16 12 6 9 11 14 14 14 16 12 11 11 12 12 14 14 13 17 15 17 14 12 11 15 10 8 8 8 7 7 7 6 6 6 7 8 8 8 8 9 9
5 5 4 4 4 4 4 4 3 6 8 8 10 7 8 11 13 15 16 15 15 16 15 13 12 10 11 11 12 13 16 16 18 11 13 15 11 9 8 8 7 6 7 7 6 6 7 7 7 8 8 8 8 8
4 4 4 4 4 4 3 4 4 5 5 7 10 12 14 14 18 19 20 15 16 13 12 12 13 11 11 11 13 13 16 16 11 15 15 12 10 9 8 7 6 7 7 7 7 7 6 7 7 8 8 8 8 8
5 5 5 4 4 4 3 3 4 5 7 11 13 17 18 23 18 17 16 13 11 11 11 11 13 12 11 12 14 14 16 15 19 15 14 11 9 8 8 8 7 7 7 7 7 7 7 7 7 7 8 8 8 9
5 5 5 5 4 3 3 2 3 4 8 10 11 17 17 15 16 14 12 12 10 9 9 10 10 10 14 11 13 15 18 19 17 15 11 9 9 9 9 8 8 8 7 7 7 7 7 7 8 8 8 9 9 8
6 6 6 3 3 2 2 2 5 6 8 9 10 13 13 15 15 15 13 12 8 7 6 7 13 13 13 13 16 17 19 17 13 10 8 9 9 9 9 8 7 7 9 8 8 7 7 8 8 9 8 8 8 8
6 8 4 3 3 2 2 5 7 8 8 10 11 10 12 14 12 12 10 9 6 6 9 9 11 11 12 15 16 13 14 11 10 8 7 8 8 8 8 8 7 7 7 8 8 8 8 8 8 8 9 8 8 9
7 6 3 3 3 4 6 7 7 8 10 10 10 11 12 11 12 11 8 6 6 7 7 9 8 12 14 18 15 11 10 9 8 8 9 8 8 8 9 9 8 8 8 8 8 9 9 9 9 9 8 9 9 10
5 6 3 2 4 6 8 7 7 9 9 13 13 13 11 11 9 7 7 5 4 5 6 7 9 11 12 11 10 9 8 8 9 9 9 9 9 9 9 9 9 9 9 9 10 9 8 8 8 7 9 10 11 11
2 2 1 1 2 6 7 7 5 9 14 10 11 11 10 11 11 9 9 7 8 7 8 9 10 8 11 8 8 8 9 9 11 12 10 10 10 11 10 9 9 8 10 11 10 8 9 10 9 9 11 12 13 13
1 3 1 3 5 5 6 6 7 7 7 12 10 9 10 12 12 13 13 8 8 8 10 8 7 6 5 5 5 7 7 8 9 8 7 7 6 9 8 8 12 13 12 10 8 8 6 12 12 15 15 16 15 15
3 1 5 3 5 5 6 6 8 8 8 8 8 8 10 9 9 9 11 9 10 11 9 7 7 6 6 7 6 8 6 7 8 7 5 6 8 11 10 9 8 9 9 8 9 9 10 15 18 19 17 17 15 19
1 2 5 5 6 7 10 6 9 8 10 11 9 10 11 11 11 10 14 11 10 10 8 8 9 10 7 7 11 13 11 9 8 9 8 8 8 9 11 9 7 7 8 9 10 10 13 11 11 13 14 13 15 15
1 5 6 8 8 9 8 9 10 11 10 11 11 17 17 14 13 12 12 11 9 15 15 12 14 11 12 14 11 9 9 10 10 9 11 11 10 8 7 8 7 8 8 9 11 12 13 12 10 11 13 13 13 14
7 8 7 12 11 12 16 17 17 13 16 16 16 18 17 13 15 15 13 10 14 13 11 16 16 14 11 8 9 10 10 9 9 9 8 7 8 9 9 9 9 9 9 11 13 13 13 13 13 13 14 14 14 14
10 8 10 14 16 14 15 16 14 14 16 19 16 15 15 15 15 16 12 12 13 12 12 11 9 8 9 8 9 9 9 9 9 9 9 9 8 9 10 11 11 12 11 12 12 13 13 14 14 14 15 14 11 13
10 13 10 14 13 14 14 12 11 13 16 17 18 17 15 16 17 12 11 12 11 10 11 10 8 8 8 9 9 9 8 8 9 10 10 10 9 10 10 11 12 12 12 12 13 13 13 14 14 14 15 15 15 15
11 14 12 11 12 11 14 16 16 15 14 14 14 16 16 15 14 11 10 11 11 11 11 11 11 11 10 10 10 10 10 10 11 11 11 12 13 13 13 13 13 10 12 12 13 13 13 14 14 14 14 15 15 15
10 13 11 12 12 13 14 14 14 12 12 12 13 15 13 11 11 12 12 12 12 12 12 12 12 13 13 12 11 11 11 12 11 12 12 12 14 14 13 13 13 13 13 12 9 11 13 14 14 14 14 14 14 15
12 11 12 13 13 13 12 11 12 12 11 11 13 14 14 13 13 14 15 14 13 13 13 13 12 13 12 13 13 13 13 12 11 10 11 12 13 13 13 14 14 14 14 14 13 12 9 11 11 13 14 14 15 15
17 14 15 16 16 14 12 13 13 13 15 15 14 14 13 14 14 16 15 16 15 15 15 15 14 12 13 13 13 13 13 12 12 10 10 11 11 12 13 13 14 14 14 13 14 13 13 12 13 14 14 14 14 14
14 13 13 16 17 17 14 14 14 14 15 16 17 18 17 16 17 15 14 15 14 14 13 13 14 13 12 12 12 12 9 11 11 11 12 12 11 12 13 14 14 13 13 13 14 14 14 14 15 15 15 15 15 15
15 14 14 14 16 16 15 13 14 16 18 18 18 18 17 15 13 15 13 14 14 14 13 13 13 13 13 12 12 12 10 12 11 9 8 9 9 11 13 13 13 13 14 14 15 15 15 15 15 15 15 15 15 15